FW6146 Weather Reports


Display with metric or nautical units.
time (UTC)temp
F
wind
direction
speed
MPH
gust
MPH
rain 1hr
in
rain 24hr
in
rain mn
in
humidity
%
barometer
mb
20260903103227 63 0.0 0.0 0.00 0.00 0.00 97 1014.3
20260903102253 63 0.0 0.0 0.00 0.00 0.00 97 1014.3
20260903101220 63 0.0 0.0 0.00 0.00 0.00 97 1014.5
20260903100220 63 0.0 0.0 0.00 0.00 0.00 97 1014.5
20260903095206 63 0.0 0.0 0.00 0.00 0.00 97 1014.5
20260903094226 63 0.0 0.0 0.00 0.00 0.00 96 1014.8
20260903093212 63 0.0 0.0 0.00 0.00 0.00 96 1014.7
20260903092232 63 0.0 0.0 0.00 0.00 0.00 96 1015.0
20260903091112 63 0.0 0.0 0.00 0.00 0.00 96 1014.8
20260903090131 63 0.0 0.0 0.00 0.00 0.00 95 1014.8
20260903085118 63 0.0 0.0 0.00 0.00 0.00 95 1014.8
20260903084104 63 0.0 1.0 0.00 0.00 0.00 93 1015.3
20260903083124 64 307 0.0 1.0 0.00 0.00 0.00 92 1015.7
20260903082110 65 303 1.0 1.0 0.00 0.00 0.00 88 1015.5
20260903081129 65 0.0 0.0 0.00 0.00 0.00 86 1015.5
20260903080116 64 0.0 0.0 0.00 0.00 0.00 86 1015.5
20260903075135 64 0.0 0.0 0.00 0.00 0.00 86 1015.6
20260903074141 64 320 0.0 1.0 0.00 0.00 0.00 86 1015.9
20260903073107 64 0.0 0.0 0.00 0.00 0.00 86 1015.9
20260903072127 64 0.0 0.0 0.00 0.00 0.00 85 1015.9
20260903071113 64 0.0 0.0 0.00 0.00 0.00 85 1016.3
20260903070132 64 0.0 0.0 0.00 0.00 0.00 85 1016.5
20260903065118 64 0.0 0.0 0.00 0.00 0.00 85 1016.8
20260903064137 64 0.0 1.0 0.00 0.00 0.00 85 1016.9
20260903063124 64 0.0 0.0 0.00 0.00 0.00 85 1017.0
20260903062110 64 0.0 0.0 0.00 0.00 0.00 85 1017.1
20260903061129 64 0.0 0.0 0.00 0.00 0.00 85 1017.3
20260903060116 64 0.0 0.0 0.00 0.00 0.00 84 1017.7
20260903055135 64 0.0 0.0 0.00 0.00 0.00 85 1017.8
20260903054121 64 0.0 0.0 0.00 0.00 0.00 85 1018.2
20260903053140 64 0.0 0.0 0.00 0.00 0.00 84 1018.0
20260903052126 64 0.0 0.0 0.00 0.00 0.00 85 1018.2
20260903051113 64 0.0 0.0 0.00 0.00 0.00 86 1018.1
20260903050205 64 0.0 0.0 0.00 0.00 0.00 85 1018.5
20260903045158 64 0.0 0.0 0.00 0.00 0.00 86 1018.5
20260903044158 64 0.0 0.0 0.00 0.00 0.00 86 1018.3
20260903043124 64 0.0 0.0 0.00 0.00 0.00 87 1018.4
20260903042143 64 0.0 0.0 0.00 0.00 0.00 86 1018.4
20260903041129 64 0.0 0.0 0.00 0.00 0.00 86 1018.4
20260903040148 64 0.0 0.0 0.00 0.00 0.00 86 1018.0
20260903035134 64 0.0 0.0 0.00 0.00 0.00 86 1018.2
20260903034120 64 0.0 0.0 0.00 0.00 0.00 86 1018.6
20260903033139 64 0.0 0.0 0.00 0.00 0.00 87 1018.7
20260903032125 64 0.0 0.0 0.00 0.00 0.00 87 1018.7
20260903031144 64 0.0 0.0 0.00 0.00 0.00 87 1018.7
20260903030130 63 0.0 0.0 0.00 0.00 0.00 89 1018.9
20260903025149 63 0.0 0.0 0.00 0.00 0.00 89 1019.1
20260903024135 63 0.0 0.0 0.00 0.00 0.00 88 1019.4
20260903023120 63 0.0 0.0 0.00 0.00 0.00 88 1019.3
20260903022138 63 0.0 0.0 0.00 0.00 0.00 87 1019.3
20260903021124 64 0.0 0.0 0.00 0.00 0.00 87 1019.1
20260903020143 64 0.0 0.0 0.00 0.00 0.00 87 1019.3
20260903015127 64 0.0 0.0 0.00 0.00 0.00 87 1019.1
20260903014146 64 0.0 0.0 0.00 0.00 0.00 87 1019.0
20260903013131 64 0.0 0.0 0.00 0.00 0.00 87 1019.1
20260903012149 65 0.0 0.0 0.00 0.00 0.00 86 1019.1
20260903011131 65 0.0 0.0 0.00 0.00 0.00 86 1019.2
20260903010139 65 0.0 0.0 0.00 0.00 0.00 86 1019.2
20260903005125 65 0.0 0.0 0.00 0.00 0.00 86 1019.2
20260903004143 65 0.0 0.0 0.00 0.00 0.00 85 1019.4
20260903003129 66 0.0 0.0 0.00 0.00 0.00 84 1019.4
20260903002148 66 0.0 1.0 0.00 0.00 0.00 84 1019.6
20260903001134 66 0.0 0.0 0.00 0.00 0.00 83 1019.6
20260903000153 66 0.0 0.0 0.00 0.00 0.00 82 1019.9
20260902235139 67 0.0 0.0 0.00 0.00 0.00 81 1020.1
20260902234125 67 0.0 0.0 0.00 0.00 0.00 80 1020.2
20260902233144 67 0.0 0.0 0.00 0.00 0.00 80 1020.1
20260902232130 67 0.0 0.0 0.00 0.00 0.00 79 1020.0
20260902231149 68 0.0 0.0 0.00 0.00 0.00 78 1020.0
20260902230135 68 0.0 0.0 0.00 0.00 0.00 78 1020.0
20260902225154 69 0.0 0.0 0.00 0.00 0.00 76 1020.2
20260902224140 69 0.0 0.0 0.00 0.00 0.00 76 1020.1
20260902223126 70 350 0.0 1.0 0.00 0.00 0.00 75 1020.2
20260902222306 70 0.0 0.0 0.00 0.00 0.00 73 1020.4
20260902221151 70 0.0 0.0 0.00 0.00 0.00 73 1020.0
20260902220151 71 0.0 1.0 0.00 0.00 0.00 70 1020.1
20260902215136 71 0.0 0.0 0.00 0.00 0.00 69 1019.8
20260902214235 71 307 0.0 1.0 0.00 0.00 0.00 67 1019.8
20260902213201 72 0.0 0.0 0.00 0.00 0.00 64 1019.7
20260902212126 72 0.0 0.0 0.00 0.00 0.00 62 1019.6
20260902211145 73 0.0 0.0 0.00 0.00 0.00 57 1019.8
20260902210131 73 0.0 0.0 0.00 0.00 0.00 59 1020.0
20260902205149 73 0.0 2.0 0.00 0.00 0.00 61 1020.2
20260902204135 73 0.0 0.0 0.00 0.00 0.00 61 1020.3
20260902203154 73 0.0 0.0 0.00 0.00 0.00 62 1020.2
20260902202140 73 0.0 1.0 0.00 0.00 0.00 61 1020.4
20260902201159 74 0.0 0.0 0.00 0.00 0.00 62 1020.2
20260902200145 74 287 1.0 2.0 0.00 0.00 0.00 60 1020.1
20260902195151 75 0.0 1.0 0.00 0.00 0.00 60 1020.2
20260902194210 75 302 0.0 1.0 0.00 0.00 0.00 58 1020.4
20260902193156 75 347 1.0 3.0 0.00 0.00 0.00 59 1020.2
20260902192154 75 350 1.0 2.0 0.00 0.00 0.00 59 1020.5
20260902191201 76 297 0.0 1.0 0.00 0.00 0.00 57 1020.6
20260902190220 76 273 2.0 3.0 0.00 0.00 0.00 59 1020.4
20260902185146 76 295 1.0 2.0 0.00 0.00 0.00 59 1020.4
20260902184205 76 348 0.0 2.0 0.00 0.00 0.00 58 1020.6
20260902183149 76 332 1.0 3.0 0.00 0.00 0.00 58 1020.2
20260902182135 76 307 0.0 1.0 0.00 0.00 0.00 59 1020.3
20260902181153 76 348 0.0 1.0 0.00 0.00 0.00 58 1020.4
20260902180137 75 0.0 1.0 0.00 0.00 0.00 61 1020.4
20260902175156 74 345 1.0 2.0 0.00 0.00 0.00 63 1020.4
20260902174140 74 0.0 1.0 0.00 0.00 0.00 63 1020.5
20260902173158 74 296 1.0 2.0 0.00 0.00 0.00 65 1020.6
20260902172143 73 3 0.0 2.0 0.00 0.00 0.00 64 1020.7
20260902171200 73 0.0 0.0 0.00 0.00 0.00 63 1020.9
20260902170145 74 290 0.0 1.0 0.00 0.00 0.00 62 1020.9
20260902165203 73 341 0.0 1.0 0.00 0.00 0.00 65 1021.0
20260902164149 73 305 1.0 3.0 0.00 0.00 0.00 66 1021.1
20260902163247 72 346 1.0 2.0 0.00 0.00 0.00 69 1021.1
20260902162152 72 294 0.0 3.0 0.00 0.00 0.00 72 1021.0
20260902161211 71 336 0.0 1.0 0.00 0.00 0.00 74 1021.0
20260902160156 71 0.0 1.0 0.00 0.00 0.00 73 1021.2
20260902155141 71 0.0 0.0 0.00 0.00 0.00 76 1021.5
20260902154159 71 0.0 0.0 0.00 0.00 0.00 75 1021.6
20260902153145 70 0.0 0.0 0.00 0.00 0.00 73 1021.6
20260902152203 71 294 1.0 3.0 0.00 0.00 0.00 74 1021.6
20260902151149 71 281 1.0 2.0 0.00 0.00 0.00 73 1021.8
20260902150228 70 297 0.0 2.0 0.00 0.00 0.00 75 1021.8
20260902145154 69 0.0 0.0 0.00 0.00 0.00 79 1021.7
20260902144213 69 301 0.0 1.0 0.00 0.00 0.00 79 1021.6
20260902143159 68 296 0.0 2.0 0.00 0.00 0.00 80 1021.5
20260902142146 68 329 0.0 1.0 0.00 0.00 0.00 81 1021.3
20260902141205 68 0.0 1.0 0.00 0.00 0.00 83 1021.4
20260902140211 67 0.0 0.0 0.00 0.00 0.00 83 1021.2
20260902135211 67 311 0.0 1.0 0.00 0.00 0.00 87 1021.1
20260902134157 66 0.0 0.0 0.00 0.00 0.00 88 1020.8
20260902133216 66 0.0 0.0 0.00 0.00 0.00 91 1020.9
20260902132202 65 0.0 0.0 0.00 0.00 0.00 94 1020.7
20260902131148 65 0.0 0.0 0.00 0.00 0.00 96 1021.0
20260902130228 65 0.0 0.0 0.00 0.00 0.00 97 1020.9
20260902125153 65 0.0 0.0 0.00 0.00 0.00 98 1021.0
20260902124213 65 0.0 0.0 0.00 0.00 0.00 98 1021.2
20260902123259 64 0.0 0.0 0.00 0.00 0.00 98 1021.1
20260902122218 64 0.0 0.0 0.00 0.00 0.00 98 1021.2
20260902121204 63 0.0 0.0 0.00 0.00 0.00 98 1021.4
20260902120151 63 0.0 0.0 0.00 0.00 0.00 98 1021.5
20260902115210 62 0.0 0.0 0.00 0.00 0.00 98 1021.5
20260902114156 62 0.0 0.0 0.00 0.00 0.00 98 1021.5
20260902113215 62 0.0 0.0 0.00 0.00 0.00 98 1021.3
20260902112201 61 0.0 0.0 0.00 0.00 0.00 98 1021.3
20260902111221 61 0.0 0.0 0.00 0.00 0.00 98 1021.4
20260902110207 61 0.0 0.0 0.00 0.00 0.00 98 1021.0
20260902105153 61 0.0 0.0 0.00 0.00 0.00 98 1020.7
20260902104213 60 0.0 0.0 0.00 0.00 0.00 98 1020.9